Time,TemperatureF,DewpointF,PressureIn,WindDirection,WindDirectionDegrees,WindSpeedMPH,WindSpeedGustMPH,Humidity,HourlyPrecipIn,Conditions,Clouds,dailyrainin,SoftwareType,DateUTC
2013-10-20 00:52:00,49.0,48.0,30.14,North,0,0.0,0.0,96,56.11,,,-99.99,,2013-10-20 07:52:00,
2013-10-20 01:41:00,48.0,47.0,30.14,North,0,0.0,0.0,97,56.11,,,-99.99,,2013-10-20 08:41:00,
2013-10-20 01:52:00,48.0,47.0,30.14,North,0,0.0,0.0,97,56.11,,,-99.99,,2013-10-20 08:52:00,
2013-10-20 10:52:00,50.0,49.0,30.13,North,0,0.0,0.0,98,56.11,,,-99.99,,2013-10-20 17:52:00,
2013-10-20 11:21:00,54.0,51.0,30.12,North,0,0.0,0.0,91,56.11,,,-99.99,,2013-10-20 18:21:00,
2013-10-20 11:42:00,56.0,52.0,30.11,North,0,0.0,0.0,88,56.11,,,-99.99,,2013-10-20 18:42:00,
2013-10-20 11:52:00,57.0,53.0,30.11,North,0,0.0,0.0,86,56.11,,,-99.99,,2013-10-20 18:52:00,
2013-10-20 12:21:00,60.0,52.0,30.09,North,0,0.0,0.0,76,56.11,,,-99.99,,2013-10-20 19:21:00,
2013-10-20 12:42:00,62.0,52.0,30.09,North,0,0.0,0.0,71,56.11,,,-99.99,,2013-10-20 19:42:00,
2013-10-20 12:52:00,63.0,54.0,30.09,North,0,0.0,0.0,72,56.11,,,-99.99,,2013-10-20 19:52:00,
2013-10-20 13:02:00,63.0,54.0,30.09,North,0,0.0,0.0,72,56.11,,,-99.99,,2013-10-20 20:02:00,
2013-10-20 13:21:00,66.0,48.0,30.07,West,259,0.0,3.0,53,56.11,,,-99.99,,2013-10-20 20:21:00,
2013-10-20 13:52:00,68.0,51.0,30.06,West,269,1.0,3.0,54,56.11,,,-99.99,,2013-10-20 20:52:00,
2013-10-20 14:21:00,70.0,48.0,30.05,SSW,207,1.0,4.0,46,56.11,,,-99.99,,2013-10-20 21:21:00,
2013-10-20 14:54:00,71.0,52.0,30.05,SSW,212,2.0,6.0,52,56.11,,,-99.99,,2013-10-20 21:54:00,
2013-10-20 15:23:00,72.0,52.0,30.05,South,177,2.0,4.0,49,56.11,,,-99.99,,2013-10-20 22:23:00,
2013-10-20 15:43:00,72.0,51.0,30.05,SSW,197,2.0,7.0,47,56.11,,,-99.99,,2013-10-20 22:43:00,
2013-10-20 15:53:00,72.0,53.0,30.05,WSW,257,0.0,3.0,52,56.11,,,-99.99,,2013-10-20 22:53:00,
2013-10-20 16:22:00,73.0,53.0,30.05,SSW,201,1.0,5.0,49,56.11,,,-99.99,,2013-10-20 23:22:00,
2013-10-20 16:34:00,73.0,53.0,30.05,SSW,201,1.0,5.0,49,56.11,,,-99.99,,2013-10-20 23:34:00,
2013-10-20 16:42:00,73.0,53.0,30.05,SSW,201,1.0,5.0,49,56.11,,,-99.99,,2013-10-20 23:42:00,
2013-10-20 17:11:00,72.0,54.0,30.04,SW,231,1.0,5.0,53,56.11,,,-99.99,,2013-10-21 00:11:00,
2013-10-20 17:21:00,73.0,54.0,30.04,SW,228,0.0,2.0,51,56.11,,,-99.99,,2013-10-21 00:21:00,
2013-10-20 17:42:00,72.0,53.0,30.05,WSW,252,0.0,1.0,52,56.11,,,-99.99,,2013-10-21 00:42:00,
2013-10-20 18:21:00,67.0,56.0,30.05,North,0,0.0,0.0,67,56.11,,,-99.99,,2013-10-21 01:21:00,
2013-10-20 18:42:00,63.0,55.0,30.05,North,0,0.0,0.0,74,56.11,,,-99.99,,2013-10-21 01:42:00,
2013-10-20 18:52:00,62.0,55.0,30.06,North,0,0.0,0.0,77,56.11,,,-99.99,,2013-10-21 01:52:00,
2013-10-20 19:21:00,59.0,54.0,30.07,North,0,0.0,0.0,83,56.11,,,-99.99,,2013-10-21 02:21:00,
2013-10-20 19:42:00,58.0,53.0,30.07,North,0,0.0,0.0,84,56.11,,,-99.99,,2013-10-21 02:42:00,
2013-10-20 19:52:00,58.0,53.0,30.07,North,0,0.0,0.0,84,56.11,,,-99.99,,2013-10-21 02:52:00,
2013-10-20 20:03:00,58.0,53.0,30.07,North,0,0.0,0.0,84,56.11,,,-99.99,,2013-10-21 03:03:00,
2013-10-20 20:22:00,57.0,53.0,30.08,North,0,0.0,0.0,86,56.11,,,-99.99,,2013-10-21 03:22:00,
2013-10-20 20:45:00,56.0,52.0,30.09,North,0,0.0,0.0,88,56.11,,,-99.99,,2013-10-21 03:45:00,
2013-10-20 20:54:00,56.0,52.0,30.09,North,0,0.0,0.0,88,56.11,,,-99.99,,2013-10-21 03:54:00,
2013-10-20 21:04:00,56.0,52.0,30.09,North,0,0.0,0.0,88,56.11,,,-99.99,,2013-10-21 04:04:00,
2013-10-20 21:13:00,56.0,52.0,30.09,North,0,0.0,0.0,88,56.11,,,-99.99,,2013-10-21 04:13:00,
2013-10-20 21:24:00,54.0,51.0,30.09,North,0,0.0,0.0,91,56.11,,,-99.99,,2013-10-21 04:24:00,
2013-10-20 21:44:00,55.0,52.0,30.09,North,0,0.0,0.0,91,56.11,,,-99.99,,2013-10-21 04:44:00,
2013-10-20 21:53:00,55.0,52.0,30.10,North,0,0.0,0.0,90,56.11,,,-99.99,,2013-10-21 04:53:00,
2013-10-20 22:23:00,54.0,52.0,30.10,North,0,0.0,0.0,92,56.11,,,-99.99,,2013-10-21 05:23:00,
2013-10-20 22:43:00,53.0,51.0,30.10,North,0,0.0,0.0,93,56.11,,,-99.99,,2013-10-21 05:43:00,
2013-10-20 22:52:00,53.0,51.0,30.11,North,0,0.0,0.0,93,56.11,,,-99.99,,2013-10-21 05:52:00,
2013-10-20 23:22:00,52.0,50.0,30.11,North,0,0.0,0.0,94,56.11,,,-99.99,,2013-10-21 06:22:00,
2013-10-20 23:42:00,52.0,51.0,30.11,North,0,0.0,0.0,95,56.11,,,-99.99,,2013-10-21 06:42:00,
2013-10-20 23:52:00,52.0,50.0,30.11,North,0,0.0,0.0,94,56.11,,,-99.99,,2013-10-21 06:52:00,